Clines Corner, NM

1:31 PM MST on January 19, 2018 (GMT -0700)
Clines Corner

Weather History for KCQC - August, 2013

Change the Weather History Date:

Tuesday, August 6, 2013

  Actual Average (KSAF) Record (KSAF)
Temperature  
Mean Temperature 72 °F -  
Max Temperature 86 °F 92 °F 95 °F (2015)
Min Temperature 61 °F 63 °F 51 °F (1998)
Cooling Degree Days 6    
Growing Degree Days 22 (Base 50)    
Moisture  
Dew Point 49 °F    
Average Humidity 49    
Maximum Humidity 70    
Minimum Humidity 26    
Precipitation  
Precipitation 0.05 in - - ()
Sea Level Pressure  
Sea Level Pressure 29.92 in    
Wind  
Wind Speed 10 mph (WNW)    
Max Wind Speed 24 mph    
Max Gust Speed 37 mph    
Visibility 10 miles    
Events Rain    
Averages and records for this station are not official NWS values.
T = Trace of Precipitation, MM = Missing Value Source: NWS Daily Summary

Daily Weather History Graph

Daily Weather History Graph

Search for Another Location

Airport or City:

Trip Planner

Search our weather history database for the weather conditions in past years. The results will help you decide how hot, cold, wet, or windy it might be!

Date:

Astronomy

Aug. 06, 2013 Rise Set
Actual Time 6:16 AM MDT 8:00 PM MDT
Civil Twilight 5:48 AM MDT 8:27 PM MDT
Nautical Twilight 5:15 AM MDT 9:00 PM MDT
Astronomical Twilight 4:40 AM MDT 9:35 PM MDT
Moon 6:07 AM MDT (8/6) 7:40 PM MDT (8/6)
Length of Visible Light 14h 39m
Length of Day
13h 44m
Waning Crescent, 0% of the Moon is Illuminated
Aug 6
Waning Crescent
Aug 6
New
Aug 14
First Quarter
Aug 20
Full
Aug 28
Last Quarter

Hourly Weather History & Observations

Time (MDT) Temp. Dew Point Humidity Pressure Visibility Wind Dir Wind Speed Gust Speed Precip Events Conditions
12:53 AM 64.0 °F 48.9 °F 58% 29.92 in 10.0 mi WNW 9.2 mph - N/A   Clear
1:53 AM 62.1 °F 48.9 °F 62% 29.90 in 10.0 mi WNW 8.1 mph - N/A   Clear
2:53 AM 62.1 °F 48.9 °F 62% 29.90 in 10.0 mi WNW 11.5 mph - N/A   Clear
3:53 AM 62.1 °F 48.9 °F 62% 29.89 in 10.0 mi NNW 12.7 mph - N/A   Clear
4:53 AM 62.1 °F 50.0 °F 65% 29.90 in 10.0 mi NW 12.7 mph - N/A   Scattered Clouds
5:53 AM 61.0 °F 51.1 °F 70% 29.92 in 10.0 mi NW 11.5 mph - N/A   Overcast
6:53 AM 61.0 °F 51.1 °F 70% 29.92 in 10.0 mi NW 11.5 mph - N/A   Mostly Cloudy
7:53 AM 66.0 °F 52.0 °F 60% 29.91 in 10.0 mi NW 4.6 mph - N/A   Clear
8:53 AM 71.1 °F 52.0 °F 51% 29.93 in 10.0 mi WNW 5.8 mph - N/A   Clear
9:53 AM 77.0 °F 48.9 °F 37% 29.92 in 10.0 mi NW 3.5 mph - N/A   Clear
10:53 AM 78.1 °F 48.0 °F 35% 29.93 in 10.0 mi WNW 8.1 mph - N/A   Clear
11:53 AM 80.1 °F 46.0 °F 30% 29.91 in 10.0 mi West 10.4 mph - N/A   Clear
12:53 PM 80.1 °F 44.1 °F 28% 29.92 in 10.0 mi SW 9.2 mph - N/A   Partly Cloudy
1:53 PM 82.0 °F 45.0 °F 27% 29.90 in 10.0 mi West 11.5 mph 16.1 mph N/A   Clear
2:53 PM 81.0 °F 46.9 °F 30% 29.88 in 10.0 mi West 9.2 mph 20.7 mph N/A   Mostly Cloudy
3:26 PM 82.4 °F 46.4 °F 28% 30.20 in 10.0 mi WNW 11.5 mph 23.0 mph N/A   Mostly Cloudy
3:53 PM 81.0 °F 45.0 °F 28% 29.86 in 10.0 mi West 12.7 mph 18.4 mph N/A   Scattered Clouds
4:53 PM 82.9 °F 45.0 °F 26% 29.85 in 10.0 mi West 19.6 mph - N/A   Scattered Clouds
5:53 PM 70.0 °F 50.0 °F 49% 29.92 in 9.0 mi South 24.2 mph 36.8 mph 0.00 in Rain Light Rain
6:53 PM 72.0 °F 51.1 °F 48% 29.92 in 10.0 mi South 16.1 mph 24.2 mph 0.05 in Rain Light Rain
7:53 PM 68.0 °F 53.1 °F 59% 29.93 in 10.0 mi NNW 9.2 mph - 0.00 in   Partly Cloudy
8:53 PM 66.0 °F 51.1 °F 59% 29.92 in 10.0 mi NNW 9.2 mph - N/A   Clear
9:53 PM 64.0 °F 51.1 °F 63% 29.91 in 10.0 mi NNW 6.9 mph - N/A   Clear
10:53 PM 64.0 °F 48.9 °F 58% 29.91 in 10.0 mi NNW 9.2 mph - N/A   Clear
11:53 PM 61.0 °F 50.0 °F 67% 29.91 in 10.0 mi WNW 9.2 mph - N/A   Clear